Location: Gorze? G�rny
(49.8500°N, 19.5000°E)
Time: 04:18:37
(UTC+00:00)

Cosmos 1867 - Pass Details

Date: 13 May 2021
Orbit: 773 x 802 km, 65.0° (Epoch: 23 June)

Event Time Altitude Azimuth Distance (km) Brightness Sun altitude
Exits shadow 22:23:11 41° 211° (SSW) 1,137 4.0 -21.4°
Maximum altitude 22:25:09 84° 128° (SE) 807 3.5 -21.5°
Drops below altitude 10° 22:30:39 10° 41° (NE) 2,383 6.7 -21.5°
Sets 22:33:06 0° 41° (NE) 3,319 7.5 -21.5°
